Location: Niedergestelen
(46.3129°N, 7.7822°E)
Time: 12:37:42
(UTC+00:00)

MOS 1 Rocket - Pass Details

Date: 01 December 2020
Orbit: 613 x 831 km, 97.4° (Epoch: 26 January)

Event Time Altitude Azimuth Distance (km) Brightness Sun altitude
Exits shadow 18:52:41 42° 326° (NW) 1,173 4.6 -31.8°
Maximum altitude 18:53:50 49° 290° (WNW) 1,065 4.4 -32.0°
Drops below altitude 10° 18:58:58 10° 217° (SW) 2,399 6.4 -32.9°
Sets 19:01:20 0° 212° (SSW) 3,306 7.1 -33.3°
